STARLINK-1276, 45368

Orbit data source: Space-Track

STARLINK-1276, 45368 is a payload satellite owned by SpaceX/Seattle (US) in LEO that was launched on Wed, 18 Mar 2020 UTC via an FALCON 9 launch vehicle from the Air Force Eastern Test Range (AFETR). Payload-class satellites include a variety of spacecraft equipped with specific instruments for various scientific and technological missions. These include communications satellites like Starlink; space stations such as the ISS; scientific satellites like the Hubble; Earth observation satellites from companies like Planet Labs, Umbra, and HawkEye 360; GPS; miniature CubeSats for education and research; and military/defense satellites.

Loading next visibility...
Identifier
45368, 2020-019J
Orbit
LEO
Country
Flag of USUS
Related business
Manufacturer
SpaceX/Seattle
Mission
Non-operational Commercial Communications
Bus & Motor
STARLINK, Unknown motor
Mass
260 kg wet, ~248 kg dry
Launch date (UTC)
2020-03-18 (6 years ago)
Launch vehicle
FALCON 9
Launch site
Air Force Eastern Test Range (AFETR)
Object type
Payload
Rocket body
Debris
Shape & HBR
Box + 1 Pan, 10.1 m
Radar Cross Section
13.562 m², Large (>1 m²)

Expand to show TLE details & history
Last TLE update: 19 hours ago

TLE from 19 hours ago
0 STARLINK-1276
1 45368U 20019J   26126.39383034  .00022012  00000-0  12415-2 0  9990
2 45368  53.0732 265.4658 0000836 337.4413  22.6543 15.13115031338463
Epoch: 2026-05-06T09:27Z
TLE epoch observation values (Epoch: 2026-05-06T09:27:06.941Z)
Latitude
0.00004°
Longitude
-100.56805°
Altitude
527.058 km
Speed
7.601 km/s
True Right ascension
17h 41m 51s
True Declination
0° 00' 00"
Sunlit
Object was in full shadow at epoch
Visualization orbit readout
Latitude
Unknown
Longitude
Unknown
Altitude
Unknown
Speed
Unknown
Apparent Right ascension
Unknown
Apparent Declination
Unknown
Sunlit
N/A
Visualization observer readout
Local Sidereal Time
12:38:49
Azimuth
Unknown
Elevation
Unknown
Doppler factor
Unknown
Orbital elements
Apogee altitude
527.553 km
Perigee altitude
526.398 km
Semi-major axis
6,905.113 km
Eccentricity
0.00008
Inclination
53.0732°
RAAN
265.4658°
Arg. of periapsis
337.4413°
True anomaly
22.65799°
Mean anomaly
22.6543°
Eccentric anomaly
22.65615°
Mean motion
3.78257 °/min
Orbital period
95.17 mins
BSTAR
0.0012415
Loading maneuver chart data...
Computing Atmospheric mass density...
Loading historical data...
Loading historical data...
Loading historical data...
Loading historical data...
Loading historical data...
Loading historical data...
Loading historical data...

Documentation

Showing up to 5 results
|